ASA669 KSEA-KSLC

Flight info

Callsign ASA669
Flight time 1h 28m
Altitude 37000
Route SUMMA2 SUMMA WANTA Q154 BYI SKEES6
Aircraft B738/M-SDE2E3FGHIRWXY/LB1

Departure

Time 2026-05-05 03:49
Airport Seattle–Tacoma International Airport (KSEA)

Arrival

Time 2026-05-05 05:17
Airport Salt Lake City International Airport (KSLC)
Time Latitude Longitude Altitude Speed Heading
2026-05-05 03:22 47.44682 -122.30386 403 ft 0 kts 220°
2026-05-05 03:39 47.44683 -122.30385 403 ft 2 kts 220°
2026-05-05 03:40 47.44700 -122.30364 404 ft 4 kts 224°
2026-05-05 03:40 47.44716 -122.30334 405 ft 4 kts 251°
2026-05-05 03:40 47.44717 -122.30300 405 ft 4 kts 304°
2026-05-05 03:40 47.44715 -122.30294 405 ft 1 kts 310°
2026-05-05 03:44 47.44719 -122.30302 405 ft 5 kts 310°
2026-05-05 03:44 47.44748 -122.30354 406 ft 8 kts 308°
2026-05-05 03:44 47.44785 -122.30419 407 ft 9 kts 309°
2026-05-05 03:44 47.44805 -122.30504 406 ft 9 kts 270°
2026-05-05 03:45 47.44812 -122.30595 405 ft 9 kts 294°
2026-05-05 03:45 47.44872 -122.30630 406 ft 11 kts 358°
2026-05-05 03:45 47.44971 -122.30628 405 ft 17 kts
2026-05-05 03:45 47.45112 -122.30626 408 ft 23 kts 359°
2026-05-05 03:46 47.45269 -122.30625 416 ft 22 kts
2026-05-05 03:46 47.45422 -122.30624 421 ft 22 kts 359°
2026-05-05 03:46 47.45571 -122.30619 422 ft 21 kts 359°
2026-05-05 03:46 47.45722 -122.30621 428 ft 23 kts
2026-05-05 03:47 47.45890 -122.30621 424 ft 26 kts 360°
2026-05-05 03:47 47.46072 -122.30620 426 ft 26 kts 358°
2026-05-05 03:47 47.46244 -122.30620 434 ft 24 kts
2026-05-05 03:47 47.46375 -122.30691 441 ft 23 kts 268°
2026-05-05 03:48 47.46244 -122.30776 436 ft 23 kts 180°
2026-05-05 03:48 47.45901 -122.30782 427 ft 86 kts 180°
2026-05-05 03:48 47.45070 -122.30790 413 ft 151 kts 180°
2026-05-05 03:48 47.43853 -122.30805 587 ft 190 kts 180°
2026-05-05 03:49 47.42472 -122.30782 1208 ft 203 kts 178°
2026-05-05 03:49 47.41106 -122.30806 2228 ft 190 kts 184°
2026-05-05 03:49 47.39718 -122.30899 2685 ft 211 kts 181°
2026-05-05 03:49 47.38165 -122.30892 2974 ft 233 kts 179°
2026-05-05 03:50 47.36511 -122.30871 3502 ft 242 kts 179°
2026-05-05 03:50 47.34793 -122.30860 4035 ft 251 kts 180°
2026-05-05 03:50 47.32982 -122.30864 4426 ft 272 kts 180°
2026-05-05 03:50 47.31045 -122.30885 5090 ft 280 kts 180°
2026-05-05 03:51 47.29080 -122.30909 5872 ft 286 kts 180°
2026-05-05 03:51 47.27090 -122.30937 6562 ft 293 kts 180°
2026-05-05 03:51 47.25016 -122.30964 7382 ft 295 kts 178°
2026-05-05 03:51 47.23028 -122.30466 8184 ft 295 kts 162°
2026-05-05 03:52 47.21076 -122.29514 9017 ft 297 kts 159°
2026-05-05 03:52 47.19121 -122.28492 9799 ft 300 kts 159°
2026-05-05 03:52 47.17137 -122.27439 10404 ft 310 kts 159°
2026-05-05 03:52 47.15031 -122.26320 10575 ft 334 kts 159°
2026-05-05 03:53 47.12763 -122.25122 10767 ft 356 kts 159°
2026-05-05 03:53 47.10385 -122.23873 11222 ft 368 kts 159°
2026-05-05 03:53 47.07954 -122.22604 11889 ft 373 kts 159°
2026-05-05 03:53 47.05501 -122.21329 12644 ft 376 kts 159°
2026-05-05 03:54 47.03021 -122.20042 13322 ft 381 kts 159°
2026-05-05 03:54 47.00503 -122.18737 13969 ft 387 kts 159°
2026-05-05 03:54 46.97949 -122.17415 14610 ft 392 kts 159°
2026-05-05 03:54 46.95366 -122.16079 15277 ft 396 kts 159°
2026-05-05 03:55 46.92747 -122.14726 15922 ft 402 kts 159°
2026-05-05 03:55 46.90096 -122.13357 16581 ft 406 kts 159°
2026-05-05 03:55 46.87414 -122.11974 17235 ft 411 kts 159°
2026-05-05 03:55 46.84707 -122.10578 17899 ft 415 kts 159°
2026-05-05 03:56 46.81961 -122.09162 18456 ft 421 kts 159°
2026-05-05 03:56 46.79180 -122.07735 19012 ft 425 kts 159°
2026-05-05 03:56 46.76376 -122.06296 19557 ft 429 kts 158°
2026-05-05 03:56 46.73542 -122.04844 20098 ft 433 kts 158°
2026-05-05 03:57 46.70686 -122.03381 20657 ft 437 kts 158°
2026-05-05 03:57 46.67805 -122.01905 21173 ft 442 kts 158°
2026-05-05 03:57 46.64901 -122.00367 21708 ft 444 kts 153°
2026-05-05 03:57 46.62295 -121.98036 22256 ft 438 kts 136°
2026-05-05 03:58 46.60182 -121.94904 22803 ft 432 kts 121°
2026-05-05 03:58 46.58628 -121.91250 23306 ft 430 kts 114°
2026-05-05 03:58 46.57164 -121.87439 23756 ft 434 kts 113°
2026-05-05 03:58 46.55697 -121.83581 24155 ft 437 kts 113°
2026-05-05 03:59 46.54206 -121.79710 24580 ft 441 kts 114°
2026-05-05 03:59 46.52689 -121.75834 25024 ft 443 kts 114°
2026-05-05 03:59 46.51148 -121.71943 25455 ft 446 kts 114°
2026-05-05 03:59 46.49591 -121.68031 25864 ft 448 kts 114°
2026-05-05 04:00 46.48024 -121.64102 26264 ft 451 kts 114°
2026-05-05 04:00 46.46433 -121.60159 26665 ft 454 kts 115°
2026-05-05 04:00 46.44781 -121.56230 27038 ft 458 kts 116°
2026-05-05 04:00 46.43089 -121.52294 27421 ft 461 kts 116°
2026-05-05 04:01 46.41402 -121.48403 27804 ft 463 kts 117°
2026-05-05 04:01 46.39682 -121.44439 28180 ft 466 kts 117°
2026-05-05 04:01 46.37955 -121.40453 28528 ft 468 kts 116°
2026-05-05 04:01 46.36222 -121.36445 28869 ft 471 kts 116°
2026-05-05 04:02 46.34481 -121.32415 29203 ft 473 kts 116°
2026-05-05 04:02 46.32735 -121.28369 29501 ft 476 kts 116°
2026-05-05 04:02 46.30974 -121.24295 29773 ft 479 kts 116°
2026-05-05 04:02 46.29205 -121.20205 30104 ft 480 kts 116°
2026-05-05 04:03 46.27435 -121.16122 30487 ft 479 kts 116°
2026-05-05 04:03 46.26265 -121.13428 30780 ft 477 kts 116°
2026-05-05 04:03 46.24503 -121.09379 31256 ft 473 kts 116°
2026-05-05 04:03 46.22167 -121.04017 31847 ft 470 kts 116°
2026-05-05 04:04 46.21013 -121.01371 32091 ft 470 kts 116°
2026-05-05 04:04 46.19272 -120.97378 32417 ft 470 kts 116°
2026-05-05 04:04 46.17532 -120.93393 32788 ft 469 kts 116°
2026-05-05 04:04 46.15793 -120.89408 33143 ft 468 kts 115°
2026-05-05 04:05 46.14056 -120.85433 33468 ft 469 kts 115°
2026-05-05 04:05 46.12317 -120.81458 33844 ft 467 kts 115°
2026-05-05 04:05 46.10587 -120.77506 34189 ft 466 kts 115°
2026-05-05 04:05 46.08858 -120.73569 34574 ft 463 kts 115°
2026-05-05 04:06 46.07133 -120.69663 34906 ft 462 kts 115°
2026-05-05 04:06 46.05409 -120.65758 35146 ft 463 kts 115°
2026-05-05 04:06 46.03680 -120.61847 35353 ft 463 kts 115°
2026-05-05 04:06 46.01948 -120.57934 35637 ft 463 kts 115°
2026-05-05 04:07 46.00218 -120.54034 35945 ft 462 kts 115°
2026-05-05 04:07 45.98494 -120.50142 36196 ft 462 kts 115°
2026-05-05 04:07 45.96760 -120.46240 36375 ft 463 kts 115°
2026-05-05 04:07 45.95023 -120.42343 36628 ft 463 kts 114°
2026-05-05 04:08 45.93285 -120.38443 36797 ft 464 kts 114°
2026-05-05 04:08 45.91540 -120.34517 36775 ft 467 kts 114°
2026-05-05 04:08 45.88059 -120.26720 36766 ft 465 kts 114°
2026-05-05 04:09 45.84580 -120.18975 36781 ft 460 kts 114°
2026-05-05 04:09 45.81111 -120.11275 36780 ft 459 kts 114°
2026-05-05 04:10 45.77651 -120.03587 36774 ft 459 kts 114°
2026-05-05 04:10 45.74186 -119.95915 36776 ft 459 kts 114°
2026-05-05 04:11 45.70703 -119.88228 36777 ft 461 kts 114°
2026-05-05 04:11 45.67198 -119.80531 36788 ft 462 kts 115°
2026-05-05 04:12 45.63700 -119.72872 36785 ft 464 kts 115°
2026-05-05 04:12 45.60164 -119.65139 36792 ft 465 kts 115°
2026-05-05 04:13 45.56627 -119.57403 36786 ft 466 kts 115°
2026-05-05 04:13 45.53078 -119.49666 36804 ft 466 kts 115°
2026-05-05 04:14 45.49514 -119.41942 36817 ft 466 kts 115°
2026-05-05 04:14 45.45945 -119.34241 36809 ft 465 kts 115°
2026-05-05 04:15 45.42377 -119.26556 36826 ft 464 kts 115°
2026-05-05 04:15 45.38812 -119.18895 36833 ft 464 kts 115°
2026-05-05 04:16 45.35252 -119.11251 36841 ft 463 kts 115°
2026-05-05 04:16 45.31714 -119.03672 36843 ft 462 kts 115°
2026-05-05 04:17 45.28155 -118.96070 36845 ft 462 kts 115°
2026-05-05 04:17 45.24584 -118.88465 36865 ft 462 kts 115°
2026-05-05 04:18 45.21018 -118.80892 36860 ft 461 kts 115°
2026-05-05 04:18 45.17449 -118.73330 36869 ft 461 kts 116°
2026-05-05 04:19 45.13874 -118.65775 36904 ft 462 kts 116°
2026-05-05 04:19 45.10281 -118.58201 36907 ft 464 kts 116°
2026-05-05 04:20 45.06674 -118.50620 36903 ft 465 kts 116°
2026-05-05 04:20 45.03058 -118.43038 36907 ft 465 kts 116°
2026-05-05 04:21 44.99428 -118.35453 36916 ft 466 kts 116°
2026-05-05 04:21 44.95575 -118.28031 36885 ft 470 kts 119°
2026-05-05 04:22 44.91615 -118.20786 36895 ft 468 kts 120°
2026-05-05 04:22 44.87647 -118.13519 36866 ft 467 kts 119°
2026-05-05 04:23 44.83702 -118.06243 36908 ft 466 kts 119°
2026-05-05 04:23 44.79759 -117.98957 36899 ft 468 kts 120°
2026-05-05 04:24 44.75807 -117.91672 36889 ft 469 kts 120°
2026-05-05 04:25 44.69859 -117.80752 36891 ft 469 kts 120°
2026-05-05 04:25 44.65887 -117.73486 36869 ft 469 kts 120°
2026-05-05 04:26 44.61910 -117.66226 36865 ft 469 kts 120°
2026-05-05 04:26 44.57956 -117.59029 36822 ft 468 kts 120°
2026-05-05 04:27 44.53972 -117.51794 36817 ft 468 kts 120°
2026-05-05 04:27 44.49989 -117.44578 36793 ft 468 kts 120°
2026-05-05 04:28 44.46009 -117.37381 36764 ft 465 kts 120°
2026-05-05 04:28 44.42054 -117.30252 36793 ft 464 kts 121°
2026-05-05 04:29 44.38091 -117.23122 36781 ft 465 kts 121°
2026-05-05 04:29 44.34205 -117.15915 36762 ft 462 kts 118°
2026-05-05 04:30 44.30616 -117.08538 36765 ft 462 kts 117°
2026-05-05 04:30 44.27034 -117.01066 36761 ft 463 kts 117°
2026-05-05 04:31 44.23416 -116.93608 36753 ft 465 kts 118°
2026-05-05 04:31 44.19767 -116.86160 36749 ft 466 kts 118°
2026-05-05 04:32 44.16100 -116.78711 36742 ft 467 kts 118°
2026-05-05 04:32 44.12423 -116.71258 36742 ft 466 kts 118°
2026-05-05 04:33 44.08742 -116.63815 36737 ft 467 kts 118°
2026-05-05 04:33 44.05083 -116.56432 36714 ft 467 kts 118°
2026-05-05 04:34 44.01391 -116.49003 36717 ft 466 kts 118°
2026-05-05 04:34 43.97702 -116.41598 36690 ft 465 kts 119°
2026-05-05 04:35 43.94028 -116.34244 36709 ft 463 kts 119°
2026-05-05 04:35 43.90356 -116.26909 36711 ft 462 kts 119°
2026-05-05 04:36 43.86684 -116.19592 36717 ft 462 kts 119°
2026-05-05 04:36 43.83006 -116.12280 36712 ft 462 kts 120°
2026-05-05 04:37 43.79327 -116.04987 36699 ft 462 kts 120°
2026-05-05 04:37 43.75670 -115.97756 36684 ft 462 kts 120°
2026-05-05 04:38 43.71977 -115.90470 36688 ft 462 kts 120°
2026-05-05 04:38 43.68277 -115.83188 36694 ft 463 kts 120°
2026-05-05 04:39 43.64568 -115.75902 36688 ft 464 kts 120°
2026-05-05 04:39 43.60744 -115.68680 36677 ft 466 kts 122°
2026-05-05 04:40 43.56815 -115.61572 36688 ft 466 kts 122°
2026-05-05 04:40 43.52906 -115.54514 36678 ft 466 kts 122°
2026-05-05 04:41 43.48987 -115.47405 36678 ft 466 kts 122°
2026-05-05 04:41 43.45071 -115.40300 36689 ft 466 kts 123°
2026-05-05 04:42 43.41149 -115.33201 36681 ft 466 kts 123°
2026-05-05 04:42 43.37222 -115.26105 36678 ft 466 kts 123°
2026-05-05 04:43 43.33290 -115.19021 36674 ft 465 kts 123°
2026-05-05 04:43 43.29364 -115.11965 36689 ft 465 kts 124°
2026-05-05 04:44 43.25434 -115.04920 36678 ft 464 kts 124°
2026-05-05 04:44 43.21535 -114.97946 36687 ft 463 kts 124°
2026-05-05 04:45 43.17617 -114.90953 36706 ft 462 kts 124°
2026-05-05 04:45 43.13692 -114.83968 36735 ft 461 kts 124°
2026-05-05 04:46 43.09781 -114.77020 36747 ft 460 kts 124°
2026-05-05 04:46 43.05868 -114.70088 36765 ft 459 kts 124°
2026-05-05 04:47 43.01986 -114.63224 36786 ft 459 kts 125°
2026-05-05 04:47 42.98071 -114.56318 36768 ft 460 kts 125°
2026-05-05 04:48 42.94148 -114.49415 36752 ft 460 kts 125°
2026-05-05 04:48 42.90215 -114.42511 36731 ft 461 kts 125°
2026-05-05 04:49 42.86262 -114.35588 36694 ft 462 kts 126°
2026-05-05 04:49 42.82303 -114.28670 36698 ft 463 kts 126°
2026-05-05 04:50 42.78359 -114.21794 36695 ft 464 kts 126°
2026-05-05 04:50 42.74377 -114.14869 36696 ft 465 kts 126°
2026-05-05 04:51 42.70381 -114.07935 36716 ft 466 kts 126°
2026-05-05 04:51 42.66372 -114.00994 36745 ft 467 kts 126°
2026-05-05 04:52 42.62351 -113.94045 36766 ft 467 kts 126°
2026-05-05 04:52 42.59009 -113.88284 36788 ft 467 kts 127°
2026-05-05 04:53 42.53933 -113.80687 36794 ft 468 kts 135°
2026-05-05 04:53 42.49212 -113.74613 36786 ft 468 kts 136°
2026-05-05 04:54 42.45275 -113.69486 36786 ft 468 kts 135°
2026-05-05 04:54 42.40667 -113.63360 36759 ft 467 kts 135°
2026-05-05 04:55 42.36047 -113.57190 36737 ft 466 kts 135°
2026-05-05 04:55 42.31412 -113.51017 36125 ft 470 kts 135°
2026-05-05 04:55 42.29092 -113.47936 35559 ft 467 kts 134°
2026-05-05 04:56 42.26774 -113.44864 34935 ft 467 kts 134°
2026-05-05 04:56 42.24452 -113.41791 34270 ft 468 kts 134°
2026-05-05 04:56 42.22122 -113.38711 33547 ft 471 kts 133°
2026-05-05 04:56 42.19774 -113.35609 32768 ft 472 kts 133°
2026-05-05 04:57 42.17429 -113.32513 32025 ft 472 kts 133°
2026-05-05 04:57 42.15082 -113.29419 31404 ft 470 kts 133°
2026-05-05 04:57 42.12758 -113.26359 30937 ft 464 kts 133°
2026-05-05 04:57 42.10456 -113.23332 30405 ft 460 kts 133°
2026-05-05 04:58 42.08177 -113.20337 29912 ft 456 kts 133°
2026-05-05 04:58 42.05919 -113.17371 29356 ft 452 kts 133°
2026-05-05 04:58 42.03683 -113.14439 28879 ft 445 kts 133°
2026-05-05 04:58 42.01503 -113.11584 28925 ft 428 kts 133°
2026-05-05 04:59 41.99390 -113.08822 28332 ft 426 kts 134°
2026-05-05 04:59 41.97274 -113.06057 27852 ft 422 kts 134°
2026-05-05 04:59 41.95171 -113.03310 27328 ft 420 kts 134°
2026-05-05 04:59 41.93085 -113.00587 26828 ft 417 kts 134°
2026-05-05 05:00 41.91041 -112.97921 26352 ft 414 kts 134°
2026-05-05 05:00 41.88985 -112.95240 25877 ft 411 kts 134°
2026-05-05 05:00 41.86944 -112.92582 25412 ft 408 kts 134°
2026-05-05 05:00 41.84911 -112.89938 24954 ft 405 kts 134°
2026-05-05 05:01 41.82895 -112.87317 24489 ft 402 kts 135°
2026-05-05 05:01 41.80888 -112.84709 24025 ft 400 kts 135°
2026-05-05 05:01 41.78893 -112.82121 23568 ft 398 kts 135°
2026-05-05 05:01 41.76910 -112.79549 23061 ft 396 kts 135°
2026-05-05 05:02 41.74932 -112.76986 22530 ft 394 kts 135°
2026-05-05 05:02 41.72971 -112.74447 22052 ft 391 kts 135°
2026-05-05 05:02 41.71025 -112.71931 21595 ft 387 kts 135°
2026-05-05 05:02 41.69094 -112.69438 21145 ft 384 kts 135°
2026-05-05 05:03 41.67191 -112.66985 20817 ft 377 kts 135°
2026-05-05 05:03 41.65300 -112.64549 20325 ft 376 kts 135°
2026-05-05 05:03 41.63428 -112.62140 19934 ft 372 kts 135°
2026-05-05 05:03 41.61566 -112.59744 19483 ft 371 kts 135°
2026-05-05 05:04 41.59714 -112.57363 19053 ft 369 kts 135°
2026-05-05 05:04 41.57868 -112.54991 18612 ft 367 kts 135°
2026-05-05 05:04 41.56031 -112.52632 18177 ft 366 kts 135°
2026-05-05 05:04 41.54200 -112.50284 17696 ft 365 kts 135°
2026-05-05 05:05 41.52392 -112.47982 17257 ft 363 kts 136°
2026-05-05 05:05 41.50514 -112.45771 16923 ft 357 kts 138°
2026-05-05 05:05 41.48632 -112.43614 16495 ft 355 kts 139°
2026-05-05 05:05 41.46762 -112.41459 16029 ft 355 kts 139°
2026-05-05 05:06 41.44907 -112.39308 15592 ft 353 kts 137°
2026-05-05 05:06 41.43135 -112.37058 15165 ft 350 kts 133°
2026-05-05 05:06 41.41488 -112.34743 14739 ft 339 kts 131°
2026-05-05 05:06 41.39911 -112.32466 14357 ft 330 kts 131°
2026-05-05 05:07 41.38376 -112.30247 13980 ft 321 kts 131°
2026-05-05 05:07 41.36876 -112.28091 13605 ft 314 kts 132°
2026-05-05 05:07 41.35402 -112.25986 13202 ft 307 kts 132°
2026-05-05 05:07 41.33958 -112.23934 12819 ft 300 kts 132°
2026-05-05 05:08 41.32576 -112.21977 12507 ft 287 kts 133°
2026-05-05 05:08 41.31238 -112.20084 12130 ft 275 kts 132°
2026-05-05 05:08 41.29949 -112.18263 11799 ft 265 kts 133°
2026-05-05 05:08 41.28716 -112.16522 11520 ft 253 kts 133°
2026-05-05 05:09 41.27523 -112.14839 11456 ft 249 kts 133°
2026-05-05 05:09 41.26327 -112.13154 11343 ft 251 kts 133°
2026-05-05 05:09 41.25123 -112.11458 11237 ft 253 kts 133°
2026-05-05 05:09 41.23910 -112.09750 11133 ft 254 kts 134°
2026-05-05 05:10 41.22682 -112.08065 11023 ft 254 kts 140°
2026-05-05 05:10 41.21134 -112.06969 10776 ft 252 kts 163°
2026-05-05 05:10 41.19484 -112.06233 10547 ft 249 kts 162°
2026-05-05 05:10 41.17858 -112.05479 10319 ft 246 kts 161°
2026-05-05 05:11 41.16253 -112.04724 10091 ft 244 kts 162°
2026-05-05 05:11 41.14657 -112.03975 9863 ft 242 kts 163°
2026-05-05 05:11 41.13011 -112.03592 9637 ft 239 kts 177°
2026-05-05 05:11 41.11358 -112.03453 9408 ft 237 kts 176°
2026-05-05 05:12 41.09739 -112.03288 9180 ft 236 kts 176°
2026-05-05 05:12 41.08084 -112.03105 8952 ft 235 kts 176°
2026-05-05 05:12 41.06485 -112.02925 8731 ft 233 kts 176°
2026-05-05 05:12 41.04874 -112.02741 8509 ft 231 kts 176°
2026-05-05 05:13 41.03277 -112.02555 8277 ft 231 kts 176°
2026-05-05 05:13 41.01674 -112.02359 8061 ft 232 kts 175°
2026-05-05 05:13 41.00057 -112.02174 7840 ft 234 kts 175°
2026-05-05 05:13 40.98433 -112.01984 7600 ft 234 kts 175°
2026-05-05 05:14 40.96817 -112.01796 7349 ft 234 kts 175°
2026-05-05 05:14 40.95185 -112.01606 7031 ft 237 kts 175°
2026-05-05 05:14 40.93556 -112.01416 6739 ft 232 kts 175°
2026-05-05 05:14 40.91976 -112.01232 6475 ft 224 kts 175°
2026-05-05 05:15 40.90447 -112.01054 6167 ft 217 kts 175°
2026-05-05 05:15 40.88975 -112.00883 5850 ft 207 kts 174°
2026-05-05 05:15 40.87599 -112.00723 5560 ft 191 kts 174°
2026-05-05 05:15 40.86335 -112.00576 5292 ft 174 kts 174°
2026-05-05 05:16 40.85187 -112.00442 5152 ft 161 kts 173°
2026-05-05 05:16 40.84092 -112.00314 4942 ft 153 kts 173°
2026-05-05 05:16 40.83028 -112.00177 4743 ft 151 kts 176°
2026-05-05 05:16 40.82011 -112.00063 4540 ft 143 kts 175°
2026-05-05 05:17 40.81042 -111.99963 4322 ft 137 kts 173°
2026-05-05 05:17 40.80135 -111.99862 4233 ft 121 kts 171°
2026-05-05 05:17 40.79487 -111.99781 4228 ft 62 kts 175°
2026-05-05 05:17 40.79230 -111.99738 4230 ft 21 kts 150°
2026-05-05 05:18 40.79123 -111.99628 4231 ft 14 kts 128°
2026-05-05 05:18 40.79091 -111.99511 4230 ft 14 kts 86°
2026-05-05 05:18 40.79062 -111.99420 4230 ft 11 kts 160°
2026-05-05 05:18 40.78984 -111.99408 4230 ft 11 kts 178°
2026-05-05 05:19 40.78908 -111.99402 4230 ft 11 kts 174°
2026-05-05 05:19 40.78835 -111.99390 4230 ft 10 kts 173°
2026-05-05 05:19 40.78764 -111.99378 4230 ft 10 kts 173°
2026-05-05 05:19 40.78724 -111.99318 4230 ft 10 kts 88°
2026-05-05 05:20 40.78725 -111.99228 4230 ft 10 kts 90°
2026-05-05 05:20 40.78729 -111.99139 4230 ft 9 kts 85°
2026-05-05 05:20 40.78736 -111.99054 4230 ft 9 kts 83°
2026-05-05 05:20 40.78749 -111.98994 4230 ft 2 kts 30°
2026-05-05 05:21 40.78762 -111.98997 4230 ft 3 kts 354°
2026-05-05 05:21 40.78786 -111.99000 4230 ft 4 kts 355°
2026-05-05 05:21 40.78810 -111.99002 4230 ft 3 kts 355°
2026-05-05 05:21 40.78818 -111.99003 4230 ft 0 kts 355°